Flag for Jamaica Weather past 2 weeks in May Pen, Jamaica

Now
84 °F

Passing clouds.


Feels Like: 88 °F
Forecast: 68 / 86 °F
Wind: 9 mph from Southwest

Location: Kingston / Norman Manley

Current Time: Dec 20, 2014 at 12:32:29 PM

Latest Report: Dec 20, 2014 at 12:00 PM


Visibility: N/A

Pressure: 29.98 "Hg

Humidity: 62%

Dew point: 70 °F

Location of May PenLocation

Historic Weather in May Pen — Graph

°F

May Pen temperature yesterday

Maximum temperature yesterday: 86 °F (at 1:00 PM)
Minimum temperature yesterday: 73 °F (at 7:00 AM)
Average temperature yesterday: 80 °F

Past Weeks' High & Low Weather Summary

 TemperatureHumidityPressure
High90 °F (Dec 6, 1:00 PM)94% (Dec 14, 7:00 PM)30.04 "Hg (Dec 14, 7:00 PM)
Low73 °F (Dec 7, 7:00 AM)51% (Dec 6, 10:00 PM)29.83 "Hg (Dec 14, 3:00 AM)
Average80 °F74%29.93 "Hg
* Reported Dec 5 11:00 AM — Dec 20 11:00 AM, May Pen, Weather by CustomWeather, © 2014

Note: Actual official high and low records may vary slightly from our data, if they occured in-between our weather recording intervals... More about our weather records

Advertising

May Pen weather history for previous 24 hours

 ConditionsComfort  
Time TempWeatherWind HumidityBarometerVisibility
11:00 AM
Dec 20
84 °FPassing clouds.7 mph58%29.98 "HgN/A
10:00 AM82 °FPassing clouds.3 mph66%30.01 "HgN/A
9:00 AM81 °FPassing clouds.5 mph70%30.01 "HgN/A
8:00 AM81 °FPassing clouds.2 mph66%29.98 "HgN/A
7:00 AM73 °FPassing clouds.3 mph83%29.95 "HgN/A
6:00 AM77 °FPassing clouds.5 mph69%29.92 "HgN/A
5:00 AM77 °FPassing clouds.6 mph65%29.92 "HgN/A
4:00 AM77 °FPassing clouds.10 mph74%29.92 "HgN/A
3:00 AM77 °FPassing clouds.9 mph74%29.92 "HgN/A
2:00 AM77 °FPassing clouds.9 mph74%29.92 "HgN/A
1:00 AM77 °FPassing clouds.10 mph79%29.92 "HgN/A
12:00 AM79 °FPassing clouds.7 mph70%29.95 "HgN/A
11:00 PM
Dec 19
77 °FPassing clouds.5 mph74%29.95 "HgN/A
10:00 PM79 °FPassing clouds.5 mph74%29.98 "HgN/A
9:00 PM81 °FPassing clouds.3 mph74%29.95 "HgN/A
8:00 PM79 °FPassing clouds.7 mph79%29.95 "HgN/A
7:00 PM81 °FPassing clouds.12 mph74%29.92 "HgN/A
6:00 PM82 °FPassing clouds.3 mph66%29.92 "HgN/A
5:00 PM84 °FPassing clouds.6 mph58%29.89 "HgN/A
4:00 PM84 °FScattered clouds.5 mph58%29.89 "HgN/A
3:00 PM84 °FScattered clouds.8 mph55%29.89 "HgN/A
2:00 PM84 °FPartly sunny.9 mph58%29.92 "HgN/A
1:00 PM86 °FScattered clouds.9 mph59%29.92 "HgN/A
12:00 PM82 °FPassing clouds.7 mph66%29.98 "HgN/A
Weather by CustomWeather, © 2014

See weather overviewHow to use our weather pages